Tracking 19562 objects as of 25-Mar-2019
HD Live streaming from Space Station
objects crossing your sky now

FENGYUN 1C DEB

Track FENGYUN 1C DEB now!
10-day predictions


NORAD ID: 31642
Int'l Code: 1999-025CAY
Perigee: 711.8 km
Apogee: 893.3 km
Inclination: 98.6 °
Period: 100.8 minutes
Semi major axis: 7173 km
RCS: 0.0088 m2 (small)
Launch date: May 10, 1999
Source: People's Republic of China (PRC)
Launch site: Taiyaun Space Center, China (TSC)

Note: This is SATELLITE DEBRIS
aabbcc
Your satellite tracking list
Your tracking list is empty




NASA's NSSDC Master Catalog

Two Line Element Set (TLE):
1 31642U 99025CAY 19083.04575637 +.00000120 +00000-0 +60328-4 0  9995
2 31642 098.6184 170.9828 0126507 281.6519 077.0488 14.28889084619183
Source of the keplerian elements: AFSPC